AUA11Q LOWW-LOWG

Flight info

Callsign AUA11Q
Flight time 0h 23m
Altitude 14000
Route RUPET
Aircraft A319/M-SDE3FGHIRWY/LB1

Departure

Time 2026-04-22 07:59
Airport Vienna International Airport (LOWW)

Arrival

Time 2026-04-22 08:22
Airport Graz Airport (LOWG)
Time Latitude Longitude Altitude Speed Heading
2026-04-22 07:35 48.11612 16.57136 610 ft 0 kts 26°
2026-04-22 07:55 48.11618 16.57141 624 ft 3 kts 26°
2026-04-22 07:56 48.11652 16.57168 609 ft 7 kts 39°
2026-04-22 07:56 48.11645 16.57245 621 ft 11 kts 115°
2026-04-22 07:56 48.11609 16.57361 614 ft 13 kts 115°
2026-04-22 07:56 48.11547 16.57455 610 ft 14 kts 159°
2026-04-22 07:57 48.11443 16.57425 621 ft 16 kts 204°
2026-04-22 07:57 48.11341 16.57351 620 ft 17 kts 206°
2026-04-22 07:57 48.11233 16.57273 621 ft 17 kts 206°
2026-04-22 07:57 48.11164 16.57223 618 ft 7 kts 206°
2026-04-22 07:58 48.11159 16.57219 615 ft 0 kts 206°
2026-04-22 07:58 48.11158 16.57219 615 ft 1 kts 206°
2026-04-22 07:58 48.11142 16.57207 609 ft 6 kts 206°
2026-04-22 07:58 48.11073 16.57153 616 ft 14 kts 221°
2026-04-22 07:59 48.11085 16.57008 620 ft 19 kts 295°
2026-04-22 07:59 48.11255 16.56483 608 ft 98 kts 296°
2026-04-22 07:59 48.11663 16.55251 677 ft 156 kts 299°
2026-04-22 07:59 48.12115 16.53783 1527 ft 158 kts 288°
2026-04-22 08:00 48.11890 16.52117 2217 ft 182 kts 240°
2026-04-22 08:00 48.10887 16.50795 2835 ft 200 kts 219°
2026-04-22 08:00 48.09743 16.49501 3504 ft 211 kts 220°
2026-04-22 08:00 48.08560 16.48156 4286 ft 216 kts 220°
2026-04-22 08:01 48.07359 16.46755 5050 ft 222 kts 222°
2026-04-22 08:01 48.06150 16.45223 5553 ft 241 kts 224°
2026-04-22 08:01 48.04817 16.43472 6071 ft 267 kts 223°
2026-04-22 08:01 48.03376 16.41573 6865 ft 283 kts 223°
2026-04-22 08:02 48.01886 16.39619 7912 ft 287 kts 222°
2026-04-22 08:02 48.00364 16.37631 8932 ft 294 kts 221°
2026-04-22 08:02 47.98808 16.35605 9982 ft 300 kts 221°
2026-04-22 08:02 47.97219 16.33537 10930 ft 305 kts 221°
2026-04-22 08:03 47.95604 16.31446 11871 ft 310 kts 220°
2026-04-22 08:03 47.93929 16.29374 12759 ft 319 kts 219°
2026-04-22 08:03 47.92125 16.27213 13047 ft 346 kts 218°
2026-04-22 08:03 47.90208 16.24952 13319 ft 354 kts 218°
2026-04-22 08:04 47.88224 16.22739 13591 ft 358 kts 210°
2026-04-22 08:04 47.85960 16.21199 13865 ft 359 kts 200°
2026-04-22 08:04 47.83637 16.19818 14129 ft 360 kts 200°
2026-04-22 08:04 47.81303 16.18447 14221 ft 359 kts 200°
2026-04-22 08:05 47.78988 16.17093 14241 ft 356 kts 200°
2026-04-22 08:05 47.76710 16.15764 14242 ft 356 kts 200°
2026-04-22 08:05 47.74407 16.14425 14236 ft 356 kts 200°
2026-04-22 08:05 47.72100 16.13083 14237 ft 356 kts 200°
2026-04-22 08:06 47.69795 16.11734 14234 ft 356 kts 200°
2026-04-22 08:06 47.67490 16.10388 14233 ft 356 kts 200°
2026-04-22 08:06 47.65187 16.09044 14235 ft 356 kts 200°
2026-04-22 08:06 47.62887 16.07703 14233 ft 355 kts 200°
2026-04-22 08:07 47.60583 16.06362 14229 ft 355 kts 200°
2026-04-22 08:07 47.58279 16.05027 14229 ft 356 kts 200°
2026-04-22 08:07 47.55972 16.03691 14233 ft 356 kts 200°
2026-04-22 08:07 47.53662 16.02357 14236 ft 357 kts 200°
2026-04-22 08:08 47.51353 16.01021 14238 ft 356 kts 200°
2026-04-22 08:08 47.49048 15.99686 14236 ft 356 kts 200°
2026-04-22 08:08 47.46738 15.98349 14238 ft 356 kts 200°
2026-04-22 08:08 47.44433 15.97020 14229 ft 356 kts 200°
2026-04-22 08:09 47.42129 15.95693 14227 ft 356 kts 200°
2026-04-22 08:09 47.39828 15.94369 14223 ft 350 kts 200°
2026-04-22 08:09 47.37609 15.93091 14219 ft 334 kts 200°
2026-04-22 08:09 47.35478 15.91860 14216 ft 325 kts 200°
2026-04-22 08:10 47.33380 15.90650 14217 ft 324 kts 200°
2026-04-22 08:10 47.31284 15.89445 14217 ft 323 kts 200°
2026-04-22 08:10 47.29194 15.88245 14217 ft 322 kts 200°
2026-04-22 08:10 47.27105 15.87046 14127 ft 320 kts 200°
2026-04-22 08:11 47.25031 15.85857 13770 ft 319 kts 200°
2026-04-22 08:11 47.22966 15.84676 13409 ft 317 kts 200°
2026-04-22 08:11 47.20945 15.83519 13045 ft 315 kts 200°
2026-04-22 08:11 47.18908 15.82353 12681 ft 313 kts 200°
2026-04-22 08:12 47.16882 15.81196 12305 ft 312 kts 200°
2026-04-22 08:12 47.14866 15.80046 11953 ft 309 kts 201°
2026-04-22 08:12 47.12867 15.78908 11562 ft 307 kts 201°
2026-04-22 08:12 47.10889 15.77781 11190 ft 303 kts 201°
2026-04-22 08:13 47.08932 15.76667 10757 ft 300 kts 201°
2026-04-22 08:13 47.06991 15.75568 10267 ft 298 kts 201°
2026-04-22 08:13 47.05067 15.74476 9765 ft 296 kts 202°
2026-04-22 08:13 47.03147 15.73383 9239 ft 296 kts 201°
2026-04-22 08:14 47.01241 15.72298 8785 ft 292 kts 201°
2026-04-22 08:14 46.99347 15.71225 8290 ft 292 kts 201°
2026-04-22 08:14 46.98093 15.70514 8031 ft 290 kts 201°
2026-04-22 08:14 46.96218 15.69450 7646 ft 288 kts 200°
2026-04-22 08:15 46.94355 15.68394 7163 ft 287 kts 201°
2026-04-22 08:15 46.92502 15.67345 6682 ft 285 kts 200°
2026-04-22 08:15 46.90657 15.66304 6185 ft 283 kts 200°
2026-04-22 08:15 46.88821 15.65272 5678 ft 282 kts 200°
2026-04-22 08:16 46.86998 15.64249 5166 ft 280 kts 200°
2026-04-22 08:16 46.85184 15.63227 4650 ft 279 kts 200°
2026-04-22 08:16 46.83384 15.62209 4311 ft 274 kts 201°
2026-04-22 08:16 46.81811 15.60772 4045 ft 263 kts 230°
2026-04-22 08:17 46.81039 15.58461 3783 ft 249 kts 264°
2026-04-22 08:17 46.81132 15.56049 3572 ft 236 kts 284°
2026-04-22 08:17 46.81396 15.53753 3502 ft 222 kts 284°
2026-04-22 08:17 46.81740 15.51627 3504 ft 209 kts 297°
2026-04-22 08:18 46.82458 15.49906 3518 ft 190 kts 315°
2026-04-22 08:18 46.83431 15.48690 3512 ft 180 kts 332°
2026-04-22 08:18 46.84565 15.47973 3506 ft 177 kts 348°
2026-04-22 08:18 46.85769 15.47626 3474 ft 176 kts 352°
2026-04-22 08:19 46.86949 15.47301 3301 ft 169 kts 352°
2026-04-22 08:19 46.88083 15.46990 3105 ft 161 kts 352°
2026-04-22 08:19 46.89155 15.46695 2895 ft 153 kts 352°
2026-04-22 08:19 46.90177 15.46415 2699 ft 145 kts 352°
2026-04-22 08:20 46.91138 15.46151 2520 ft 134 kts 353°
2026-04-22 08:20 46.92019 15.45908 2322 ft 125 kts 352°
2026-04-22 08:20 46.92857 15.45679 2153 ft 122 kts 352°
2026-04-22 08:20 46.93691 15.45450 1974 ft 121 kts 352°
2026-04-22 08:21 46.94512 15.45225 1806 ft 119 kts 351°
2026-04-22 08:21 46.95339 15.44998 1633 ft 122 kts 351°
2026-04-22 08:21 46.96176 15.44769 1465 ft 121 kts 349°
2026-04-22 08:21 46.96994 15.44552 1293 ft 118 kts 350°
2026-04-22 08:22 46.97790 15.44330 1145 ft 118 kts 348°
2026-04-22 08:22 46.98537 15.44124 1100 ft 95 kts 349°
2026-04-22 08:22 46.99059 15.43975 1102 ft 62 kts 349°
2026-04-22 08:22 46.99413 15.43879 1111 ft 39 kts 349°
2026-04-22 08:23 46.99609 15.43844 1111 ft 26 kts
2026-04-22 08:23 46.99779 15.43885 1115 ft 24 kts 13°
2026-04-22 08:23 46.99899 15.43942 1115 ft 13 kts 38°
2026-04-22 08:23 46.99935 15.44064 1110 ft 13 kts 79°
2026-04-22 08:24 46.99895 15.44147 1114 ft 12 kts 166°
2026-04-22 08:24 46.99821 15.44178 1113 ft 8 kts 141°
2026-04-22 08:24 46.99807 15.44243 1116 ft 5 kts 120°
2026-04-22 08:24 46.99770 15.44271 1115 ft 7 kts 167°
2026-04-22 08:25 46.99733 15.44283 1110 ft 3 kts 168°
2026-04-22 08:25 46.99723 15.44285 1113 ft 0 kts 169°